2021/06/04 23:39:50+0000,-40.60,-47.95,-32.96,-48.64,-53.74,-54.83
2021/06/04 23:40:42+0000,-40.84,-47.96,-32.95,-49.45,-52.97,-55.68
2021/06/04 23:41:41+0000,-40.54,-47.10,-33.20,-49.44,-53.20,-55.94
2021/06/04 23:42:34+0000,-40.28,-47.69,-33.12,-48.71,-53.04,-55.72
2021/06/04 23:43:26+0000,-40.00,-46.68,-32.67,-49.27,-54.05,-56.47
2021/06/04 23:44:18+0000,-40.40,-47.37,-33.24,-48.93,-52.81,-56.14
2021/06/04 23:45:10+0000,-40.23,-46.88,-33.07,-48.61,-53.23,-55.99
2021/06/04 23:46:02+0000,-39.99,-46.38,-33.28,-49.02,-53.54,-56.22
2021/06/04 23:46:54+0000,-40.19,-47.16,-33.52,-49.45,-53.27,-55.93
2021/06/04 23:47:46+0000,-40.14,-47.86,-32.34,-49.40,-53.96,-55.92
2021/06/04 23:48:38+0000,-40.32,-46.53,-32.66,-48.42,-53.40,-55.78
2021/06/04 23:49:30+0000,-40.57,-47.82,-33.04,-49.28,-53.09,-55.37
2021/06/04 23:50:22+0000,-40.71,-47.89,-33.39,-48.84,-52.59,-55.97
2021/06/04 23:51:21+0000,-40.26,-47.62,-33.11,-48.74,-53.09,-55.63
2021/06/04 23:52:13+0000,-40.38,-48.37,-32.75,-48.36,-53.49,-55.78
2021/06/04 23:53:05+0000,-40.41,-48.33,-32.82,-50.04,-53.15,-56.22
2021/06/04 23:53:57+0000,-40.26,-48.05,-32.41,-48.96,-53.63,-56.41
2021/06/04 23:54:49+0000,-41.45,-47.17,-33.04,-49.73,-53.78,-55.83
2021/06/04 23:55:41+0000,-40.20,-48.21,-32.55,-49.64,-53.53,-55.17
2021/06/04 23:56:33+0000,-41.19,-48.32,-32.68,-49.14,-53.30,-55.43
2021/06/04 23:57:25+0000,-40.45,-47.31,-33.29,-49.28,-53.52,-56.19
2021/06/04 23:58:17+0000,-40.24,-47.85,-32.96,-49.04,-53.60,-56.18
2021/06/04 23:59:09+0000,-40.88,-47.96,-33.16,-48.97,-54.50,-56.05
2021/06/05 00:00:02+0000,-40.76,-48.80,-33.02,-49.39,-54.35,-56.39
2021/06/05 00:01:06+0000,-40.95,-46.83,-32.97,-48.99,-54.77,-55.51
2021/06/05 00:01:58+0000,-40.38,-48.38,-33.09,-49.54,-53.43,-56.25
2021/06/05 00:02:50+0000,-40.66,-48.36,-32.99,-48.89,-53.87,-55.60
2021/06/05 00:03:42+0000,-41.05,-47.03,-33.00,-49.17,-54.18,-55.41
2021/06/05 00:04:34+0000,-40.67,-48.44,-33.35,-49.86,-53.97,-55.85
2021/06/05 00:05:26+0000,-40.36,-47.11,-32.90,-49.55,-54.14,-55.96
2021/06/05 00:06:18+0000,-40.64,-46.50,-32.64,-50.19,-53.56,-56.38
2021/06/05 00:07:10+0000,-41.16,-47.33,-32.83,-49.11,-53.42,-55.89
2021/06/05 00:08:02+0000,-40.72,-46.87,-32.71,-49.81,-54.09,-55.96
2021/06/05 00:08:54+0000,-41.03,-47.06,-32.74,-50.91,-53.93,-54.62
2021/06/05 00:09:46+0000,-40.68,-48.90,-33.10,-49.56,-54.15,-55.72
2021/06/05 00:10:38+0000,-40.45,-48.99,-32.63,-49.54,-54.10,-55.45
2021/06/05 00:11:38+0000,-41.12,-47.48,-32.24,-50.19,-53.55,-56.06
2021/06/05 00:12:30+0000,-40.91,-47.56,-32.97,-48.94,-53.64,-55.71
2021/06/05 00:13:22+0000,-39.59,-47.88,-32.64,-49.29,-54.16,-55.82
2021/06/05 00:14:14+0000,-39.37,-47.52,-33.24,-50.68,-54.72,-56.85
2021/06/05 00:15:06+0000,-38.64,-48.13,-32.85,-49.23,-54.89,-56.38
2021/06/05 00:15:58+0000,-38.59,-47.59,-32.85,-50.08,-54.95,-56.36
2021/06/05 00:16:50+0000,-38.84,-47.36,-32.67,-49.89,-54.63,-56.04
2021/06/05 00:17:42+0000,-40.39,-48.31,-32.39,-50.38,-54.43,-56.20
2021/06/05 00:18:34+0000,-39.48,-47.27,-32.55,-50.75,-53.91,-56.53
2021/06/05 00:19:26+0000,-40.31,-48.20,-32.85,-49.95,-54.68,-56.74
2021/06/05 00:20:18+0000,-40.00,-47.11,-33.01,-50.19,-54.47,-56.29
2021/06/05 00:21:18+0000,-40.29,-48.04,-32.76,-50.14,-54.13,-56.36
2021/06/05 00:22:10+0000,-39.90,-47.11,-32.61,-48.55,-54.42,-55.74
2021/06/05 00:23:02+0000,-40.08,-48.88,-32.85,-49.59,-54.51,-56.50
2021/06/05 00:23:54+0000,-40.79,-48.49,-33.05,-50.41,-54.73,-56.64
2021/06/05 00:24:46+0000,-40.21,-47.18,-32.09,-49.45,-54.17,-56.73
2021/06/05 00:25:38+0000,-40.36,-46.75,-32.86,-49.58,-54.08,-55.71
2021/06/05 00:26:30+0000,-39.74,-47.44,-32.39,-50.46,-54.83,-55.89
2021/06/05 00:27:22+0000,-39.08,-48.25,-32.98,-49.88,-54.30,-56.99
2021/06/05 00:28:14+0000,-38.84,-48.51,-32.48,-50.57,-54.10,-56.29
2021/06/05 00:29:06+0000,-38.70,-47.56,-33.00,-50.85,-54.02,-56.73
2021/06/05 00:29:58+0000,-38.60,-47.46,-32.51,-50.25,-54.03,-56.21
2021/06/05 00:30:50+0000,-37.26,-48.03,-32.91,-49.17,-54.18,-56.32
2021/06/05 00:31:49+0000,-38.28,-47.51,-33.00,-50.49,-53.90,-56.43
2021/06/05 00:32:41+0000,-38.76,-48.31,-31.89,-49.79,-54.51,-57.01
2021/06/05 00:33:33+0000,-38.64,-48.78,-32.45,-50.52,-53.65,-56.22
2021/06/05 00:34:25+0000,-38.81,-47.81,-32.56,-50.97,-54.06,-57.02
2021/06/05 00:35:17+0000,-38.90,-51.24,-32.07,-49.97,-54.39,-55.58
2021/06/05 00:36:09+0000,-39.51,-51.01,-31.80,-50.56,-54.41,-55.39
2021/06/05 00:37:01+0000,-38.94,-50.85,-32.42,-49.01,-53.82,-56.29
2021/06/05 00:37:53+0000,-39.90,-50.73,-31.82,-49.62,-54.98,-56.58
2021/06/05 00:38:45+0000,-39.95,-50.76,-32.02,-49.99,-54.72,-56.76
2021/06/05 00:39:37+0000,-39.82,-51.17,-32.05,-50.26,-54.29,-56.69
2021/06/05 00:40:29+0000,-40.90,-50.38,-32.03,-50.45,-54.64,-56.50
2021/06/05 00:41:42+0000,-40.02,-50.77,-31.68,-50.86,-54.24,-56.45
2021/06/05 00:42:34+0000,-40.80,-51.07,-31.83,-48.15,-54.00,-56.26
2021/06/05 00:43:26+0000,-40.85,-50.84,-31.64,-50.54,-54.46,-56.49
2021/06/05 00:44:18+0000,-40.35,-50.36,-32.06,-46.32,-54.20,-56.64
2021/06/05 00:45:10+0000,-40.46,-50.77,-32.28,-45.37,-54.60,-56.57
2021/06/05 00:46:02+0000,-39.44,-50.87,-32.96,-50.43,-54.95,-56.06
2021/06/05 00:46:54+0000,-41.59,-49.64,-32.58,-49.09,-54.67,-55.43
2021/06/05 00:47:46+0000,-41.81,-49.70,-32.62,-45.96,-54.54,-56.09
2021/06/05 00:48:38+0000,-41.45,-49.65,-32.50,-50.20,-54.36,-56.59
2021/06/05 00:49:31+0000,-41.54,-51.33,-33.15,-45.91,-54.77,-56.29
2021/06/05 00:50:23+0000,-41.58,-51.32,-32.03,-46.71,-54.16,-56.89
2021/06/05 00:51:24+0000,-41.30,-51.35,-32.15,-46.05,-54.36,-57.34
2021/06/05 00:52:16+0000,-40.51,-49.86,-32.32,-50.43,-54.39,-56.25
2021/06/05 00:53:08+0000,-40.08,-49.56,-31.82,-47.51,-54.09,-56.03
2021/06/05 00:54:00+0000,-41.01,-50.12,-31.91,-46.32,-54.69,-56.72
2021/06/05 00:54:52+0000,-40.96,-50.38,-31.56,-48.12,-54.94,-56.41
2021/06/05 00:55:44+0000,-39.58,-50.35,-31.28,-45.90,-54.22,-56.44
2021/06/05 00:56:36+0000,-38.54,-50.06,-31.13,-50.95,-54.85,-56.21
2021/06/05 00:57:28+0000,-39.28,-50.92,-30.91,-51.06,-55.08,-56.00
2021/06/05 00:58:20+0000,-39.58,-48.70,-31.63,-51.05,-54.26,-56.08
2021/06/05 00:59:12+0000,-40.56,-51.09,-31.59,-46.23,-54.51,-56.45
2021/06/05 01:00:04+0000,-40.12,-50.57,-32.43,-50.51,-54.14,-56.19
2021/06/05 01:01:05+0000,-39.99,-50.40,-31.89,-49.82,-54.23,-55.88
2021/06/05 01:01:57+0000,-40.42,-50.34,-31.21,-51.06,-54.92,-56.73
2021/06/05 01:02:49+0000,-40.53,-49.83,-31.67,-51.06,-54.09,-56.99
2021/06/05 01:03:41+0000,-40.38,-50.87,-32.29,-50.95,-54.52,-56.87
2021/06/05 01:04:33+0000,-40.63,-50.25,-31.61,-50.97,-54.85,-56.35
2021/06/05 01:05:25+0000,-40.72,-50.38,-31.39,-50.63,-54.42,-56.83
2021/06/05 01:06:17+0000,-40.42,-50.23,-32.17,-50.80,-54.22,-56.37
2021/06/05 01:07:09+0000,-40.38,-49.73,-31.66,-49.94,-54.41,-56.42
2021/06/05 01:08:01+0000,-40.92,-50.71,-31.45,-50.73,-54.41,-56.61
2021/06/05 01:08:53+0000,-40.43,-50.77,-32.20,-46.84,-54.52,-55.99
2021/06/05 01:09:46+0000,-40.17,-50.31,-31.42,-46.11,-53.63,-55.59
2021/06/05 01:10:38+0000,-39.63,-49.18,-31.67,-46.36,-54.89,-55.91
2021/06/05 01:11:38+0000,-40.18,-50.35,-31.74,-50.39,-54.43,-56.03
2021/06/05 01:12:30+0000,-40.43,-49.97,-31.60,-51.22,-54.47,-56.04
2021/06/05 01:13:22+0000,-40.21,-49.98,-32.45,-50.54,-54.54,-56.26
2021/06/05 01:14:14+0000,-40.29,-50.03,-31.97,-45.76,-54.30,-56.00
2021/06/05 01:15:06+0000,-39.29,-50.15,-31.86,-46.54,-54.10,-56.80
2021/06/05 01:15:58+0000,-40.03,-50.10,-31.85,-51.55,-54.82,-55.92
2021/06/05 01:16:50+0000,-40.41,-50.57,-31.74,-46.30,-53.55,-55.98
2021/06/05 01:17:42+0000,-40.42,-49.91,-31.37,-50.74,-54.57,-55.80
2021/06/05 01:18:34+0000,-40.67,-47.47,-31.72,-51.14,-54.75,-56.35
2021/06/05 01:19:26+0000,-38.74,-47.33,-31.40,-50.80,-55.04,-56.69
2021/06/05 01:20:18+0000,-40.51,-47.39,-32.23,-51.20,-54.62,-56.17
2021/06/05 01:21:19+0000,-40.05,-47.69,-31.37,-51.57,-54.71,-56.50
2021/06/05 01:22:11+0000,-40.47,-50.91,-31.90,-50.69,-54.48,-56.39
2021/06/05 01:23:03+0000,-40.48,-50.19,-32.30,-50.78,-55.16,-56.69
2021/06/05 01:23:55+0000,-40.53,-50.08,-32.06,-50.60,-54.81,-56.56
2021/06/05 01:24:47+0000,-39.98,-50.36,-32.40,-51.08,-55.02,-56.82
2021/06/05 01:25:39+0000,-40.54,-50.44,-32.15,-50.92,-55.12,-56.84
2021/06/05 01:26:31+0000,-40.22,-49.33,-31.64,-50.61,-54.85,-56.50
2021/06/05 01:27:23+0000,-40.47,-49.33,-31.87,-45.91,-54.42,-56.48
2021/06/05 01:28:15+0000,-40.26,-50.70,-32.16,-51.45,-54.48,-56.78
2021/06/05 01:29:07+0000,-40.10,-51.11,-31.84,-50.75,-54.58,-56.90
2021/06/05 01:29:59+0000,-39.77,-49.69,-32.14,-50.22,-54.72,-55.82
2021/06/05 01:30:51+0000,-40.04,-50.03,-31.22,-51.09,-54.44,-56.01
2021/06/05 01:31:51+0000,-40.14,-50.81,-32.44,-47.32,-54.78,-56.30
2021/06/05 01:32:43+0000,-40.68,-50.03,-32.07,-51.26,-54.89,-56.67
2021/06/05 01:33:35+0000,-40.52,-49.89,-31.51,-46.70,-54.54,-56.82
2021/06/05 01:34:27+0000,-40.52,-50.68,-31.81,-50.63,-54.57,-56.32
2021/06/05 01:35:20+0000,-40.89,-50.08,-31.92,-50.70,-55.14,-56.26
2021/06/05 01:36:12+0000,-40.07,-49.70,-31.58,-49.64,-54.49,-56.03
2021/06/05 01:37:04+0000,-39.80,-49.68,-32.04,-50.71,-55.20,-56.28
2021/06/05 01:37:56+0000,-40.36,-49.82,-31.73,-50.65,-53.94,-56.68
2021/06/05 01:38:48+0000,-40.25,-49.73,-32.02,-50.19,-55.42,-56.29
2021/06/05 01:39:40+0000,-40.32,-49.90,-32.11,-49.20,-55.60,-55.85
2021/06/05 01:40:32+0000,-40.08,-49.92,-31.59,-50.09,-54.65,-56.49
2021/06/05 01:41:32+0000,-39.53,-49.97,-31.92,-50.34,-54.68,-55.65
2021/06/05 01:42:24+0000,-40.20,-49.44,-32.96,-50.36,-54.76,-56.03
2021/06/05 01:43:16+0000,-40.29,-49.24,-32.64,-49.99,-54.66,-56.80
2021/06/05 01:44:08+0000,-40.32,-50.01,-32.47,-50.59,-53.66,-56.14
2021/06/05 01:45:00+0000,-39.99,-46.74,-32.49,-50.60,-54.72,-56.11
2021/06/05 01:45:52+0000,-40.11,-50.26,-32.22,-50.26,-54.94,-56.94
2021/06/05 01:46:44+0000,-39.38,-49.40,-32.38,-50.12,-54.33,-56.36
2021/06/05 01:47:36+0000,-39.46,-49.54,-31.85,-50.29,-54.38,-56.82
2021/06/05 01:48:28+0000,-40.07,-49.39,-32.25,-49.90,-55.53,-56.81
2021/06/05 01:49:20+0000,-39.86,-49.43,-32.37,-50.44,-54.18,-56.85
2021/06/05 01:50:12+0000,-39.57,-49.68,-32.01,-49.85,-55.09,-56.66
2021/06/05 01:51:12+0000,-39.05,-49.59,-32.47,-49.75,-54.64,-56.25
2021/06/05 01:52:04+0000,-40.21,-47.53,-31.87,-50.15,-53.44,-55.77
2021/06/05 01:52:56+0000,-40.49,-49.97,-32.39,-49.65,-55.02,-56.13
2021/06/05 01:53:48+0000,-40.30,-49.98,-32.23,-48.94,-54.24,-56.67
2021/06/05 01:54:41+0000,-41.82,-50.01,-32.53,-48.78,-55.47,-56.60
2021/06/05 01:55:33+0000,-42.23,-50.09,-32.87,-48.91,-54.00,-56.64
2021/06/05 01:56:25+0000,-42.08,-50.02,-32.67,-49.41,-54.15,-56.30
2021/06/05 01:57:17+0000,-41.76,-46.29,-32.75,-49.02,-54.24,-56.24
2021/06/05 01:58:09+0000,-41.80,-49.59,-32.89,-49.09,-54.05,-56.54
2021/06/05 01:59:01+0000,-41.72,-50.10,-33.09,-50.05,-54.22,-56.78
2021/06/05 01:59:53+0000,-41.96,-49.71,-32.48,-50.13,-54.04,-56.88
2021/06/05 02:00:45+0000,-41.70,-49.79,-32.69,-49.48,-54.23,-55.88
2021/06/05 02:01:47+0000,-41.98,-49.98,-32.57,-50.44,-54.19,-56.41
2021/06/05 02:02:39+0000,-43.19,-49.96,-32.51,-49.85,-55.10,-57.08
2021/06/05 02:03:31+0000,-41.84,-50.06,-32.91,-49.40,-54.51,-56.73
2021/06/05 02:04:23+0000,-42.69,-49.66,-32.21,-49.87,-54.00,-56.36
2021/06/05 02:05:15+0000,-42.43,-49.72,-32.80,-49.54,-54.41,-56.50
2021/06/05 02:06:07+0000,-42.66,-49.69,-32.54,-49.07,-54.53,-56.85
2021/06/05 02:06:59+0000,-42.73,-49.43,-32.80,-49.44,-54.38,-57.02
2021/06/05 02:07:51+0000,-41.34,-50.29,-32.23,-50.16,-54.38,-56.88
2021/06/05 02:08:43+0000,-42.30,-49.90,-32.74,-49.72,-54.56,-56.60
2021/06/05 02:09:35+0000,-41.69,-49.50,-32.69,-49.58,-54.32,-56.20
2021/06/05 02:10:27+0000,-41.98,-49.44,-32.13,-50.15,-54.38,-56.13
2021/06/05 02:11:27+0000,-42.00,-49.66,-32.74,-49.71,-53.75,-57.12
2021/06/05 02:12:19+0000,-42.40,-49.53,-32.65,-50.88,-54.67,-56.26
2021/06/05 02:13:11+0000,-42.45,-49.74,-32.64,-48.96,-53.98,-56.67
2021/06/05 02:14:03+0000,-42.24,-49.32,-32.77,-50.54,-53.79,-56.79
2021/06/05 02:14:55+0000,-41.98,-45.88,-32.19,-49.33,-53.99,-56.37
2021/06/05 02:15:47+0000,-41.57,-50.00,-32.39,-50.01,-54.11,-56.15
2021/06/05 02:16:39+0000,-41.22,-48.95,-32.76,-49.50,-53.93,-56.48
2021/06/05 02:17:31+0000,-42.00,-48.46,-31.77,-46.95,-53.39,-56.57
2021/06/05 02:18:23+0000,-41.75,-46.53,-31.61,-46.84,-54.15,-56.93
2021/06/05 02:19:15+0000,-41.81,-47.50,-31.67,-49.54,-54.45,-56.40
2021/06/05 02:20:07+0000,-41.94,-49.76,-32.72,-49.90,-53.51,-56.70
2021/06/05 02:21:20+0000,-41.15,-50.24,-31.87,-47.47,-54.34,-56.90
2021/06/05 02:22:12+0000,-40.79,-46.83,-32.13,-50.74,-53.79,-56.65
2021/06/05 02:23:04+0000,-41.65,-46.21,-33.39,-49.11,-54.02,-56.67
2021/06/05 02:23:56+0000,-41.71,-47.98,-32.29,-48.54,-53.68,-57.21
2021/06/05 02:24:48+0000,-40.17,-50.01,-31.78,-50.28,-54.23,-56.56
2021/06/05 02:25:40+0000,-40.90,-49.38,-31.26,-50.39,-54.05,-56.14
2021/06/05 02:26:32+0000,-42.24,-47.78,-31.28,-48.79,-54.42,-56.45
2021/06/05 02:27:24+0000,-41.87,-48.04,-31.78,-49.11,-54.01,-56.34
2021/06/05 02:28:16+0000,-41.50,-44.30,-31.56,-50.08,-53.76,-56.31
2021/06/05 02:29:08+0000,-41.79,-49.40,-33.21,-49.73,-54.00,-55.92
2021/06/05 02:30:01+0000,-41.09,-49.73,-32.88,-49.92,-54.40,-56.12
2021/06/05 02:31:01+0000,-41.91,-49.98,-32.65,-48.71,-54.23,-56.83
2021/06/05 02:31:53+0000,-40.63,-49.00,-32.06,-49.60,-53.55,-55.99
2021/06/05 02:32:45+0000,-38.65,-49.00,-32.44,-49.29,-53.88,-55.61
2021/06/05 02:33:37+0000,-41.43,-49.85,-32.78,-49.82,-53.72,-56.18
2021/06/05 02:34:29+0000,-41.82,-48.51,-33.09,-49.84,-54.29,-56.46
2021/06/05 02:35:21+0000,-41.61,-49.96,-32.84,-51.12,-53.91,-56.27
2021/06/05 02:36:13+0000,-41.70,-49.44,-32.58,-49.79,-53.78,-56.14
2021/06/05 02:37:05+0000,-41.30,-49.23,-32.26,-50.93,-54.00,-56.82
2021/06/05 02:37:57+0000,-40.72,-49.20,-32.50,-49.55,-53.84,-56.82
2021/06/05 02:38:49+0000,-41.71,-49.39,-31.61,-50.46,-54.39,-56.26
2021/06/05 02:39:41+0000,-40.48,-49.37,-32.02,-49.99,-54.16,-56.77
2021/06/05 02:40:33+0000,-41.46,-49.54,-32.08,-50.44,-54.18,-56.60
2021/06/05 02:41:33+0000,-41.26,-49.89,-32.07,-51.02,-54.15,-57.05
2021/06/05 02:42:25+0000,-41.81,-48.92,-32.06,-49.04,-53.16,-56.47
2021/06/05 02:43:17+0000,-41.69,-49.60,-32.89,-50.63,-54.13,-56.18
2021/06/05 02:44:09+0000,-41.39,-50.52,-32.07,-50.56,-54.00,-55.65
2021/06/05 02:45:01+0000,-41.50,-49.17,-31.21,-50.15,-54.69,-55.60
2021/06/05 02:45:53+0000,-35.94,-49.80,-31.38,-49.80,-53.63,-56.75
2021/06/05 02:46:45+0000,-40.21,-49.22,-30.76,-50.35,-54.57,-55.84
2021/06/05 02:47:37+0000,-40.92,-49.81,-31.49,-50.16,-53.78,-56.64
2021/06/05 02:48:29+0000,-41.82,-50.28,-31.69,-47.71,-54.90,-56.32
2021/06/05 02:49:21+0000,-41.91,-50.30,-31.40,-49.34,-54.15,-56.16
2021/06/05 02:50:14+0000,-41.55,-49.65,-31.46,-50.78,-53.63,-56.59
2021/06/05 02:51:14+0000,-41.73,-50.40,-32.11,-50.46,-53.58,-56.45
2021/06/05 02:52:06+0000,-40.72,-50.48,-31.91,-50.88,-54.61,-55.86
2021/06/05 02:52:58+0000,-41.77,-49.29,-31.76,-45.85,-54.41,-55.67
2021/06/05 02:53:50+0000,-40.89,-49.72,-31.88,-50.90,-53.81,-56.88
2021/06/05 02:54:42+0000,-41.09,-49.83,-32.13,-50.45,-54.59,-56.54
2021/06/05 02:55:34+0000,-40.77,-49.23,-31.94,-51.21,-53.61,-56.17
2021/06/05 02:56:26+0000,-40.14,-49.53,-32.17,-48.06,-54.84,-56.56
2021/06/05 02:57:18+0000,-39.77,-49.46,-32.30,-50.65,-53.95,-56.75
2021/06/05 02:58:10+0000,-40.89,-49.80,-31.84,-49.74,-53.95,-56.52
2021/06/05 02:59:02+0000,-40.44,-49.63,-32.32,-49.52,-54.00,-55.77
2021/06/05 02:59:54+0000,-40.74,-49.20,-31.82,-50.16,-54.22,-56.48
2021/06/05 03:00:46+0000,-40.06,-49.20,-31.52,-51.18,-55.09,-56.15
2021/06/05 03:01:53+0000,-39.77,-48.98,-32.13,-48.79,-54.52,-55.55
2021/06/05 03:02:45+0000,-39.76,-49.85,-32.10,-50.57,-53.69,-55.63
2021/06/05 03:03:37+0000,-41.07,-49.74,-31.98,-50.92,-54.28,-56.52
2021/06/05 03:04:29+0000,-38.72,-47.57,-31.82,-50.62,-53.96,-56.67
2021/06/05 03:05:21+0000,-40.43,-50.12,-32.50,-49.86,-54.18,-55.95
2021/06/05 03:06:13+0000,-39.39,-46.24,-32.83,-50.47,-53.81,-56.28
2021/06/05 03:07:05+0000,-39.99,-47.62,-32.33,-49.78,-54.35,-56.46
2021/06/05 03:07:57+0000,-39.89,-47.43,-32.37,-49.97,-54.21,-56.46
2021/06/05 03:08:49+0000,-39.49,-49.09,-32.55,-50.67,-54.23,-56.90
2021/06/05 03:09:41+0000,-39.83,-48.62,-33.36,-49.65,-54.85,-56.10
2021/06/05 03:10:33+0000,-39.94,-46.88,-33.67,-51.14,-55.43,-56.29
2021/06/05 03:11:33+0000,-40.01,-48.46,-32.98,-51.69,-54.81,-56.46
2021/06/05 03:12:25+0000,-40.32,-47.50,-32.78,-49.87,-55.22,-56.46
2021/06/05 03:13:17+0000,-39.72,-48.52,-33.62,-50.61,-55.51,-56.05
2021/06/05 03:14:09+0000,-39.57,-48.17,-32.22,-48.77,-55.47,-55.64
2021/06/05 03:15:01+0000,-39.62,-48.71,-32.28,-49.36,-55.42,-56.19
2021/06/05 03:15:53+0000,-40.04,-48.59,-31.61,-50.61,-55.47,-56.44
2021/06/05 03:16:45+0000,-40.78,-47.87,-31.64,-50.11,-55.02,-56.17
2021/06/05 03:17:37+0000,-40.11,-46.82,-31.51,-50.32,-54.70,-55.61
2021/06/05 03:18:29+0000,-39.42,-45.64,-31.44,-51.00,-54.75,-56.13
2021/06/05 03:19:21+0000,-41.39,-46.57,-31.94,-50.61,-55.59,-56.54
2021/06/05 03:20:14+0000,-39.67,-46.08,-32.18,-50.80,-55.66,-56.18
2021/06/05 03:21:14+0000,-39.83,-49.10,-32.10,-52.33,-55.34,-56.11
2021/06/05 03:22:06+0000,-40.86,-48.85,-31.58,-50.86,-55.50,-56.56
2021/06/05 03:22:58+0000,-40.38,-46.33,-31.95,-49.97,-55.88,-56.22
2021/06/05 03:23:50+0000,-39.37,-46.43,-32.36,-52.92,-55.44,-56.23
2021/06/05 03:24:42+0000,-38.88,-47.16,-31.34,-51.58,-55.75,-56.21
2021/06/05 03:25:34+0000,-39.57,-48.99,-31.50,-53.29,-56.01,-55.15
2021/06/05 03:26:26+0000,-39.58,-48.89,-31.74,-49.77,-56.04,-55.54
2021/06/05 03:27:18+0000,-40.36,-43.97,-31.91,-53.30,-55.54,-55.78
2021/06/05 03:28:10+0000,-40.76,-47.18,-31.68,-50.76,-55.96,-56.32
2021/06/05 03:29:02+0000,-39.81,-48.73,-32.02,-51.94,-55.35,-56.42
2021/06/05 03:29:54+0000,-41.57,-46.21,-31.56,-50.63,-55.97,-55.60
2021/06/05 03:30:46+0000,-41.40,-48.27,-31.22,-51.42,-56.50,-56.43
2021/06/05 03:31:47+0000,-41.95,-45.27,-32.18,-51.26,-56.91,-56.36
2021/06/05 03:32:39+0000,-41.19,-48.76,-31.93,-52.17,-56.53,-56.31
2021/06/05 03:33:31+0000,-41.00,-49.05,-32.17,-51.19,-56.52,-56.02
2021/06/05 03:34:23+0000,-39.24,-49.40,-31.90,-52.91,-56.18,-56.35
2021/06/05 03:35:15+0000,-40.52,-48.54,-31.94,-51.47,-56.47,-55.71
2021/06/05 03:36:07+0000,-41.22,-48.83,-31.21,-47.75,-56.49,-56.02
2021/06/05 03:36:59+0000,-39.26,-47.93,-31.19,-51.93,-56.18,-55.97
2021/06/05 03:37:51+0000,-39.56,-48.59,-31.68,-52.43,-55.74,-55.65
2021/06/05 03:38:43+0000,-39.19,-48.40,-30.61,-50.43,-56.15,-54.92
2021/06/05 03:39:35+0000,-39.47,-47.32,-30.65,-53.67,-56.60,-56.40
2021/06/05 03:40:27+0000,-39.29,-47.81,-31.31,-50.46,-55.66,-54.65
2021/06/05 03:41:27+0000,-40.94,-48.28,-31.32,-52.03,-55.67,-55.53
2021/06/05 03:42:19+0000,-40.22,-47.71,-31.23,-53.92,-56.17,-55.72
2021/06/05 03:43:11+0000,-40.70,-47.65,-31.30,-51.53,-57.34,-56.06
2021/06/05 03:44:03+0000,-40.91,-48.60,-30.91,-53.16,-56.53,-56.89
2021/06/05 03:44:55+0000,-39.85,-48.29,-30.97,-52.21,-57.24,-56.86
2021/06/05 03:45:47+0000,-40.83,-47.98,-30.78,-51.41,-55.81,-55.76
2021/06/05 03:46:39+0000,-41.19,-47.61,-29.81,-51.92,-55.70,-56.07
2021/06/05 03:47:32+0000,-39.39,-47.66,-30.36,-51.70,-56.13,-56.10
2021/06/05 03:48:24+0000,-39.91,-48.77,-30.20,-51.66,-56.73,-56.17
2021/06/05 03:49:16+0000,-40.65,-46.58,-30.64,-51.01,-56.61,-56.25
2021/06/05 03:50:08+0000,-40.44,-48.39,-30.25,-51.10,-56.85,-56.68
2021/06/05 03:51:08+0000,-39.20,-45.47,-30.90,-50.96,-56.30,-56.18
2021/06/05 03:52:00+0000,-40.22,-45.36,-30.83,-49.52,-56.48,-56.52
2021/06/05 03:52:52+0000,-39.53,-45.57,-30.47,-50.03,-56.65,-56.88
2021/06/05 03:53:44+0000,-40.04,-44.63,-30.87,-50.08,-57.03,-56.08
2021/06/05 03:54:36+0000,-39.92,-44.32,-30.40,-53.38,-56.32,-56.61
2021/06/05 03:55:28+0000,-38.10,-44.19,-31.38,-51.89,-55.96,-56.28
2021/06/05 03:56:20+0000,-38.29,-45.33,-30.06,-53.56,-55.81,-57.01
2021/06/05 03:57:12+0000,-41.00,-44.55,-30.39,-52.13,-56.06,-55.74
2021/06/05 03:58:04+0000,-39.79,-44.61,-30.13,-51.08,-55.07,-55.35
2021/06/05 03:58:56+0000,-38.45,-43.43,-30.82,-51.99,-55.35,-55.24
2021/06/05 03:59:48+0000,-39.82,-44.54,-30.57,-52.30,-55.53,-56.27
2021/06/05 04:00:40+0000,-40.22,-44.39,-30.74,-52.18,-56.00,-56.14
2021/06/05 04:01:41+0000,-39.93,-44.20,-30.58,-52.61,-55.73,-56.49
2021/06/05 04:02:33+0000,-41.03,-44.70,-31.07,-54.42,-55.21,-56.08
2021/06/05 04:03:25+0000,-40.09,-45.77,-30.13,-51.21,-55.53,-56.97
2021/06/05 04:04:17+0000,-38.65,-44.66,-30.52,-49.72,-55.86,-56.51
2021/06/05 04:05:09+0000,-40.04,-45.17,-30.24,-49.83,-55.50,-56.43
2021/06/05 04:06:01+0000,-39.37,-45.85,-30.34,-50.36,-56.14,-56.77
2021/06/05 04:06:53+0000,-39.79,-45.00,-30.62,-49.92,-56.07,-56.68
2021/06/05 04:07:46+0000,-39.61,-46.36,-30.57,-51.03,-55.69,-55.76
2021/06/05 04:08:38+0000,-39.86,-45.83,-31.19,-51.98,-55.47,-55.35
2021/06/05 04:09:30+0000,-39.25,-45.29,-30.67,-50.83,-55.91,-57.08
2021/06/05 04:10:22+0000,-39.51,-44.95,-30.39,-51.47,-55.52,-56.65
2021/06/05 04:11:23+0000,-40.43,-44.09,-30.38,-51.31,-55.09,-55.48
2021/06/05 04:12:15+0000,-40.59,-46.17,-29.87,-52.01,-55.53,-55.33
2021/06/05 04:13:07+0000,-39.91,-45.12,-30.49,-52.30,-56.10,-56.41
2021/06/05 04:14:00+0000,-41.15,-44.18,-30.53,-51.41,-56.22,-56.28
2021/06/05 04:14:52+0000,-40.59,-45.94,-30.32,-51.76,-55.42,-56.23
2021/06/05 04:15:44+0000,-40.31,-46.85,-30.60,-51.34,-56.20,-56.74
2021/06/05 04:16:36+0000,-39.59,-46.72,-29.93,-52.72,-56.03,-56.72
2021/06/05 04:17:28+0000,-40.65,-46.07,-30.57,-52.03,-55.79,-56.89
2021/06/05 04:18:20+0000,-39.69,-44.19,-30.06,-53.62,-55.73,-56.20
2021/06/05 04:19:12+0000,-40.45,-43.01,-30.60,-50.99,-55.47,-56.82
2021/06/05 04:20:04+0000,-39.54,-45.09,-30.09,-53.84,-55.52,-55.69
2021/06/05 04:21:04+0000,-40.15,-44.74,-30.65,-53.39,-55.40,-55.44
2021/06/05 04:21:56+0000,-39.96,-45.47,-30.50,-51.43,-55.96,-56.58
2021/06/05 04:22:48+0000,-37.67,-43.64,-30.52,-53.37,-55.74,-56.70
2021/06/05 04:23:40+0000,-40.06,-44.31,-30.57,-53.58,-55.07,-56.77
2021/06/05 04:24:32+0000,-41.71,-48.71,-31.19,-52.37,-55.61,-56.64
2021/06/05 04:25:24+0000,-41.41,-46.91,-30.49,-52.04,-55.81,-55.80
2021/06/05 04:26:16+0000,-41.48,-45.76,-30.77,-53.06,-55.31,-55.69
2021/06/05 04:27:08+0000,-40.87,-46.80,-29.84,-52.91,-55.52,-56.03
2021/06/05 04:28:00+0000,-41.67,-45.65,-29.67,-51.02,-55.63,-55.94
2021/06/05 04:28:52+0000,-41.31,-48.44,-30.60,-52.28,-55.61,-56.34
2021/06/05 04:29:45+0000,-41.78,-46.19,-30.07,-52.25,-55.42,-56.33
2021/06/05 04:30:37+0000,-40.82,-49.82,-31.24,-53.01,-55.70,-56.34
2021/06/05 04:31:36+0000,-39.84,-50.03,-30.44,-53.06,-55.95,-55.28
2021/06/05 04:32:28+0000,-40.23,-47.94,-30.59,-50.62,-55.21,-55.75
2021/06/05 04:33:20+0000,-39.81,-48.51,-30.90,-52.58,-55.57,-56.46
2021/06/05 04:34:13+0000,-41.27,-45.55,-30.59,-53.72,-55.95,-56.07
2021/06/05 04:35:05+0000,-42.47,-47.80,-30.63,-54.58,-55.05,-55.92
2021/06/05 04:35:57+0000,-40.91,-47.76,-30.67,-51.06,-55.83,-55.78
2021/06/05 04:36:49+0000,-41.64,-46.17,-30.32,-54.00,-55.73,-56.16
2021/06/05 04:37:41+0000,-40.83,-47.28,-30.60,-52.94,-56.16,-56.42
2021/06/05 04:38:33+0000,-41.58,-47.33,-30.53,-51.72,-55.14,-56.12
2021/06/05 04:39:25+0000,-41.74,-48.00,-30.34,-52.84,-56.04,-56.23
2021/06/05 04:40:17+0000,-41.24,-48.42,-30.06,-52.82,-55.85,-56.12
2021/06/05 04:41:17+0000,-41.09,-48.44,-30.49,-53.12,-55.45,-55.58
2021/06/05 04:42:09+0000,-41.44,-45.36,-30.75,-53.29,-55.50,-55.60
2021/06/05 04:43:01+0000,-41.65,-45.08,-30.83,-50.09,-56.03,-55.43
2021/06/05 04:43:53+0000,-37.43,-44.85,-30.52,-52.00,-55.32,-56.21
2021/06/05 04:44:45+0000,-42.32,-44.27,-30.56,-53.18,-55.39,-56.86
2021/06/05 04:45:37+0000,-42.22,-46.51,-30.55,-52.29,-55.80,-55.99
2021/06/05 04:46:29+0000,-41.46,-45.20,-31.34,-52.28,-55.61,-56.75
2021/06/05 04:47:21+0000,-39.76,-44.56,-31.01,-53.16,-55.88,-56.35
2021/06/05 04:48:13+0000,-39.15,-43.34,-30.43,-52.01,-55.93,-56.52
2021/06/05 04:49:05+0000,-39.55,-45.48,-30.31,-53.47,-56.00,-56.74
2021/06/05 04:49:58+0000,-39.60,-44.77,-29.88,-52.86,-55.94,-56.64
2021/06/05 04:50:50+0000,-40.10,-44.11,-30.26,-53.06,-55.42,-56.40
2021/06/05 04:51:50+0000,-39.69,-44.57,-30.44,-54.15,-55.26,-55.96
2021/06/05 04:52:42+0000,-40.35,-45.84,-30.56,-52.71,-56.04,-56.80
2021/06/05 04:53:34+0000,-40.27,-45.90,-30.44,-53.99,-55.95,-56.17
2021/06/05 04:54:26+0000,-39.80,-45.08,-30.81,-53.83,-57.18,-56.11